Tracking 18942 objects as of 18-Jan-2018
HD Live streaming from Space Station
objects crossing your sky now

GLOBALSTAR M076

Track GLOBALSTAR M076 now!
10-day predictions
GLOBALSTAR M076 is classified as:


NORAD ID: 37190
Int'l Code: 2010-054C
Perigee: 1,419.8 km
Apogee: 1,421.6 km
Inclination: 52.0 °
Period: 114.1 minutes
Semi major axis: 7791 km
RCS: 3.9294 m2 (large)
Launch date: October 19, 2010
Source: Globalstar (GLOB)
Launch site: TYURATAM MISSILE AND SPACE COMPLEX (TTMTR)
aabbcc
Your satellite tracking list
Your tracking list is empty




NASA's NSSDC Master Catalog

Two Line Element Set (TLE):
1 37190U 10054C   18018.23796587 -.00000091  00000-0  70951-4 0  9992
2 37190  52.0036  99.8660 0001148 110.0063 282.2590 12.62280341335289
Source of the keplerian elements: AFSPC